Stündliche Wetter Labyshka

Heute, 10 Mai, Montag

Zeit Temperatur Niederschläge Wind Luftdruck Luftfeuchtigkeit
00:00 +14°C° 0.1 mm 3 m/S 754 mmHg 79%
01:00 +15°C° 0.1 mm 2 m/S 754 mmHg 81%
02:00 +15°C° 0.1 mm 2 m/S 755 mmHg 83%
03:00 +14°C° 0 mm 2 m/S 755 mmHg 84%
04:00 +15°C° 0.2 mm 2 m/S 755 mmHg 83%
05:00 +15°C° 0.2 mm 2 m/S 756 mmHg 82%
06:00 +16°C° 0.2 mm 1 m/S 756 mmHg 82%
07:00 +17°C° 0 mm 2 m/S 757 mmHg 75%
08:00 +18°C° 0 mm 3 m/S 757 mmHg 69%
09:00 +20°C° 0 mm 3 m/S 757 mmHg 61%
10:00 +21°C° 0 mm 3 m/S 758 mmHg 57%
11:00 +22°C° 0 mm 3 m/S 758 mmHg 53%
12:00 +24°C° 0 mm 3 m/S 758 mmHg 48%
13:00 +25°C° 0 mm 3 m/S 759 mmHg 46%
14:00 +25°C° 0 mm 3 m/S 759 mmHg 43%
15:00 +26°C° 0 mm 3 m/S 759 mmHg 41%
16:00 +25°C° 0 mm 3 m/S 759 mmHg 46%
17:00 +24°C° 0 mm 2 m/S 759 mmHg 52%
18:00 +23°C° 0 mm 2 m/S 760 mmHg 57%
19:00 +21°C° 0 mm 2 m/S 760 mmHg 59%
20:00 +19°C° 0 mm 2 m/S 760 mmHg 60%
21:00 +18°C° 0 mm 2 m/S 761 mmHg 62%
22:00 +17°C° 0 mm 2 m/S 761 mmHg 67%
23:00 +17°C° 0 mm 3 m/S 761 mmHg 71%

Morgen, 11 Mai, Dienstag

Zeit Temperatur Niederschläge Wind Luftdruck Luftfeuchtigkeit
00:00 +16°C° 0 mm 3 m/S 761 mmHg 76%
01:00 +16°C° 0 mm 3 m/S 761 mmHg 77%
02:00 +14°C° 0 mm 3 m/S 762 mmHg 77%
03:00 +14°C° 0 mm 3 m/S 762 mmHg 78%
04:00 +14°C° 0 mm 3 m/S 762 mmHg 76%
05:00 +16°C° 0 mm 2 m/S 762 mmHg 74%
06:00 +16°C° 0 mm 2 m/S 763 mmHg 72%
07:00 +18°C° 0 mm 3 m/S 763 mmHg 66%
08:00 +19°C° 0 mm 3 m/S 763 mmHg 59%
09:00 +21°C° 0 mm 4 m/S 763 mmHg 53%
10:00 +22°C° 0 mm 4 m/S 764 mmHg 49%
11:00 +23°C° 0 mm 4 m/S 764 mmHg 45%
12:00 +25°C° 0 mm 4 m/S 764 mmHg 41%
13:00 +25°C° 0 mm 4 m/S 764 mmHg 40%
14:00 +25°C° 0 mm 4 m/S 764 mmHg 39%
15:00 +25°C° 0 mm 4 m/S 764 mmHg 38%
16:00 +24°C° 0 mm 3 m/S 764 mmHg 43%
17:00 +24°C° 0 mm 2 m/S 764 mmHg 47%
18:00 +23°C° 0 mm 2 m/S 764 mmHg 52%
19:00 +20°C° 0 mm 2 m/S 764 mmHg 52%
20:00 +20°C° 0 mm 1 m/S 764 mmHg 53%
21:00 +19°C° 0 mm 1 m/S 765 mmHg 53%
22:00 +19°C° 0 mm 1 m/S 765 mmHg 56%
23:00 +18°C° 0 mm 1 m/S 765 mmHg 59%

übermorgen, 12 Mai, Mittwoch

Zeit Temperatur Niederschläge Wind Luftdruck Luftfeuchtigkeit
00:00 +16°C° 0 mm 1 m/S 765 mmHg 62%
01:00 +16°C° 0 mm 2 m/S 765 mmHg 64%
02:00 +15°C° 0 mm 2 m/S 765 mmHg 66%
03:00 +15°C° 0 mm 2 m/S 765 mmHg 69%
04:00 +15°C° 0 mm 2 m/S 765 mmHg 69%
05:00 +16°C° 0 mm 2 m/S 765 mmHg 70%
06:00 +17°C° 0 mm 2 m/S 765 mmHg 70%
07:00 +18°C° 0 mm 3 m/S 765 mmHg 65%
08:00 +19°C° 0 mm 3 m/S 765 mmHg 60%
09:00 +21°C° 0 mm 4 m/S 765 mmHg 55%
10:00 +22°C° 0 mm 4 m/S 765 mmHg 51%
11:00 +23°C° 0 mm 4 m/S 765 mmHg 48%
12:00 +25°C° 0 mm 5 m/S 765 mmHg 45%
13:00 +25°C° 0 mm 4 m/S 765 mmHg 43%
14:00 +25°C° 0 mm 4 m/S 765 mmHg 41%
15:00 +25°C° 0 mm 4 m/S 765 mmHg 39%
16:00 +23°C° 0 mm 4 m/S 764 mmHg 46%
17:00 +22°C° 0 mm 3 m/S 764 mmHg 52%
18:00 +21°C° 0 mm 2 m/S 764 mmHg 59%
19:00 +20°C° 0 mm 2 m/S 764 mmHg 59%
20:00 +19°C° 0 mm 2 m/S 764 mmHg 59%
21:00 +17°C° 0 mm 2 m/S 765 mmHg 59%
22:00 +17°C° 0 mm 2 m/S 765 mmHg 60%
23:00 +16°C° 0 mm 1 m/S 765 mmHg 60%

13 Mai, Donnerstag

Zeit Temperatur Niederschläge Wind Luftdruck Luftfeuchtigkeit
00:00 +15°C° 0 mm 1 m/S 765 mmHg 61%
01:00 +15°C° 0 mm 2 m/S 765 mmHg 61%
02:00 +15°C° 0 mm 2 m/S 765 mmHg 62%
03:00 +14°C° 0 mm 2 m/S 765 mmHg 62%
04:00 +15°C° 0 mm 2 m/S 765 mmHg 63%
05:00 +15°C° 0 mm 2 m/S 765 mmHg 64%
06:00 +16°C° 0 mm 3 m/S 765 mmHg 65%
07:00 +17°C° 0 mm 3 m/S 764 mmHg 61%
08:00 +18°C° 0 mm 4 m/S 764 mmHg 57%
09:00 +20°C° 0 mm 4 m/S 764 mmHg 54%
10:00 +21°C° 0 mm 5 m/S 764 mmHg 50%
11:00 +22°C° 0 mm 5 m/S 764 mmHg 47%
12:00 +23°C° 0 mm 5 m/S 764 mmHg 43%
13:00 +23°C° 0 mm 5 m/S 763 mmHg 45%
14:00 +23°C° 0 mm 5 m/S 763 mmHg 48%
15:00 +23°C° 0 mm 4 m/S 763 mmHg 50%
16:00 +22°C° 0 mm 3 m/S 763 mmHg 56%
17:00 +21°C° 0 mm 3 m/S 763 mmHg 63%
18:00 +20°C° 0 mm 2 m/S 762 mmHg 69%
19:00 +19°C° 0 mm 2 m/S 762 mmHg 68%
20:00 +19°C° 0 mm 2 m/S 762 mmHg 68%
21:00 +19°C° 0 mm 3 m/S 762 mmHg 67%
22:00 +18°C° 0 mm 2 m/S 762 mmHg 68%
23:00 +18°C° 0 mm 2 m/S 762 mmHg 70%

14 Mai, Freitag

Zeit Temperatur Niederschläge Wind Luftdruck Luftfeuchtigkeit
00:00 +18°C° 0 mm 2 m/S 762 mmHg 71%
01:00 +17°C° 0 mm 2 m/S 762 mmHg 71%
02:00 +17°C° 0 mm 2 m/S 762 mmHg 71%
03:00 +16°C° 0 mm 2 m/S 762 mmHg 72%
04:00 +17°C° 0 mm 2 m/S 762 mmHg 71%
05:00 +17°C° 0 mm 2 m/S 762 mmHg 70%
06:00 +18°C° 0 mm 2 m/S 762 mmHg 70%
07:00 +19°C° 0 mm 3 m/S 762 mmHg 63%
08:00 +21°C° 0 mm 4 m/S 762 mmHg 56%
09:00 +23°C° 0 mm 4 m/S 762 mmHg 49%
10:00 +25°C° 0 mm 5 m/S 762 mmHg 45%
11:00 +26°C° 0 mm 5 m/S 761 mmHg 42%
12:00 +27°C° 0 mm 5 m/S 761 mmHg 38%
13:00 +27°C° 0 mm 5 m/S 761 mmHg 40%
14:00 +27°C° 0 mm 5 m/S 761 mmHg 42%
15:00 +27°C° 0 mm 5 m/S 761 mmHg 43%
16:00 +26°C° 0 mm 4 m/S 761 mmHg 46%
17:00 +25°C° 0 mm 4 m/S 760 mmHg 49%
18:00 +23°C° 0 mm 4 m/S 760 mmHg 52%
19:00 +22°C° 0 mm 4 m/S 760 mmHg 54%
20:00 +20°C° 0 mm 3 m/S 760 mmHg 57%
21:00 +19°C° 0 mm 3 m/S 760 mmHg 59%
22:00 +18°C° 0 mm 3 m/S 760 mmHg 60%
23:00 +18°C° 0 mm 3 m/S 760 mmHg 60%

15 Mai, Samstag

Zeit Temperatur Niederschläge Wind Luftdruck Luftfeuchtigkeit
00:00 +17°C° 0 mm 3 m/S 760 mmHg 61%
01:00 +17°C° 0 mm 3 m/S 760 mmHg 61%
02:00 +17°C° 0 mm 3 m/S 760 mmHg 61%
03:00 +16°C° 0 mm 3 m/S 760 mmHg 61%
04:00 +17°C° 0 mm 3 m/S 760 mmHg 62%
05:00 +17°C° 0 mm 2 m/S 760 mmHg 63%
06:00 +18°C° 0 mm 2 m/S 760 mmHg 65%
07:00 +20°C° 0 mm 3 m/S 759 mmHg 58%
08:00 +21°C° 0 mm 4 m/S 759 mmHg 52%
09:00 +23°C° 0 mm 5 m/S 759 mmHg 46%
10:00 +25°C° 0 mm 5 m/S 759 mmHg 43%
11:00 +26°C° 0 mm 6 m/S 759 mmHg 41%
12:00 +28°C° 0 mm 6 m/S 759 mmHg 38%
13:00 +28°C° 0 mm 6 m/S 759 mmHg 38%
14:00 +28°C° 0 mm 6 m/S 759 mmHg 37%
15:00 +28°C° 0 mm 6 m/S 759 mmHg 37%
16:00 +27°C° 0 mm 5 m/S 758 mmHg 42%
17:00 +26°C° 0 mm 4 m/S 758 mmHg 47%
18:00 +24°C° 0 mm 3 m/S 758 mmHg 52%
19:00 +22°C° 0 mm 3 m/S 758 mmHg 54%
20:00 +21°C° 0 mm 3 m/S 758 mmHg 55%
21:00 +19°C° 0 mm 3 m/S 758 mmHg 57%
22:00 +19°C° 0 mm 3 m/S 757 mmHg 56%
23:00 +18°C° 0 mm 3 m/S 757 mmHg 55%
Mehr zeigen

Wir brauchen deine Erlaubnis

Meteoprog und unser Service Anbieter werden persönliche Daten aufbewahren, so wie Cookies, Geräte Bezeichnung oder ähnliche Technologien von deinem Gerät und Prozess, so wie Persönliche Daten Inhalte und Werbungen, genauso wie social Media und den Verkehr zu analysieren.

  • Aufbewahrung und/oder Zugang zu deiner Geräte Informationen.

    Cookies, Geräte Bezeichnung oder andere Informationen, können aufbewahrt oder Zugang zu deinem Gerät erhalten, für den Grund, der oben angegeben wird.

  • Personalisierte Werbung und Inhalte, Messungen, Einblick in das Publikum und Produkt Entwicklung.

    Werbungen und Inhalte können personalisiert werden, basierend auf ein Profil. Mehr Daten können besser personalisierte Werbungen und Inhalte hinzufügen. Werbung und Inhalte können gezeigt und gemessen werden. Einblicke über das Publikum, welche die Werbung gesehen haben und den Inhalt, können abgeleitet werden. So wie Daten können genutzt werden, um es zu verbessern oder die Benutzer Erfahrung zu verbessern das System und die Software.

Wenn du “Ich stimme zu” klickst, erlaubst du uns, die Cookies zu benutzen die Geräte Bezeichnung, den Web oder ähnliche Technologien zu benutzen. Deine Settings, können in deinem Gerät bei deinem Browser geändert werden.

Für den bestimmten Zweck, berechtigten Interessen beruhen darauf, mehr als auf den Inhalt. Du kannst mehr darüber in unseren Privaten und Cookie Politik lesen.